FW3611 Weather Reports


Display with metric or nautical units.
time (UTC)temp
F
wind
direction
speed
MPH
gust
MPH
rain 1hr
in
rain 24hr
in
rain mn
in
humidity
%
barometer
mb
20260906231606 74 114 2.0 12.0 0.97 0.97 0.97 94 1012.5
20260906231109 75 99 2.0 12.0 0.97 0.97 0.97 94 1012.3
20260906230607 75 99 4.0 12.0 0.97 0.97 0.97 94 1012.1
20260906230107 74 65 6.0 14.0 0.94 0.94 0.92 93 1012.0
20260906225610 75 44 8.0 15.0 0.85 0.85 0.85 93 1011.9
20260906225106 75 63 8.0 16.0 0.81 0.81 0.80 93 1012.0
20260906224607 75 37 8.0 20.0 0.65 0.65 0.62 93 1011.8
20260906224116 75 44 9.0 21.0 0.46 0.46 0.42 92 1011.6
20260906223610 76 47 10.0 22.0 0.32 0.32 0.30 89 1011.5
20260906223111 78 336 12.0 23.0 0.16 0.16 0.12 84 1011.7
20260906222615 80 53 12.0 23.0 0.00 0.00 0.00 79 1011.4
20260906222115 81 54 13.0 27.0 0.00 0.00 0.00 77 1011.1
20260906221606 82 87 15.0 27.0 0.00 0.00 0.00 74 1011.2
20260906221108 85 63 12.0 25.0 0.00 0.00 0.00 70 1010.9
20260906220602 88 65 6.0 19.0 0.00 0.00 0.00 66 1010.6
20260906220106 91 80 1.0 6.0 0.00 0.00 0.00 71 1010.1
20260906215617 92 85 1.0 3.0 0.00 0.00 0.00 69 1009.8
20260906215109 92 85 1.0 2.0 0.00 0.00 0.00 67 1009.5
20260906214615 93 85 1.0 2.0 0.00 0.00 0.00 66 1009.4
20260906214106 93 85 1.0 3.0 0.00 0.00 0.00 62 1009.3
20260906213615 93 85 1.0 3.0 0.00 0.00 0.00 61 1009.3
20260906213109 94 85 1.0 3.0 0.00 0.00 0.00 60 1009.4
20260906212601 95 85 1.0 2.0 0.00 0.00 0.00 58 1009.5
20260906212104 95 85 1.0 3.0 0.00 0.00 0.00 59 1009.6
20260906211058 96 85 1.0 3.0 0.00 0.00 0.00 57 1009.6
20260906210600 96 85 1.0 4.0 0.00 0.00 0.00 58 1009.6
20260906210057 96 85 1.0 6.0 0.00 0.00 0.00 58 1009.5
20260906205607 96 83 1.0 6.0 0.00 0.00 0.00 58 1009.4
20260906204603 96 84 1.0 3.0 0.00 0.00 0.00 59 1009.3
20260906204051 95 84 2.0 6.0 0.00 0.00 0.00 59 1009.2
20260906203548 94 84 2.0 6.0 0.00 0.00 0.00 57 1009.1
20260906203053 94 125 2.0 5.0 0.00 0.00 0.00 61 1008.9
20260906202045 95 106 2.0 7.0 0.00 0.00 0.00 62 1008.9
20260906201541 94 105 2.0 7.0 0.00 0.00 0.00 62 1008.9
20260906201036 95 146 2.0 6.0 0.00 0.00 0.00 61 1009.1
20260906200530 94 146 2.0 6.0 0.00 0.00 0.00 60 1009.2
20260906200028 95 152 2.0 6.0 0.00 0.00 0.00 61 1009.3
20260906195530 95 168 1.0 4.0 0.00 0.00 0.00 58 1009.5
20260906195028 95 168 1.0 4.0 0.00 0.00 0.00 61 1009.7
20260906194529 94 168 2.0 9.0 0.00 0.00 0.00 60 1009.9
20260906193529 94 209 2.0 7.0 0.00 0.00 0.00 60 1010.3
20260906193029 94 96 2.0 6.0 0.00 0.00 0.00 61 1010.4
20260906192537 94 105 2.0 6.0 0.00 0.00 0.00 59 1010.5
20260906192034 94 106 2.0 6.0 0.00 0.00 0.00 62 1010.6
20260906191532 94 213 1.0 4.0 0.00 0.00 0.00 59 1010.7
20260906191029 93 214 2.0 6.0 0.00 0.00 0.00 60 1010.8
20260906190530 93 215 3.0 9.0 0.00 0.00 0.00 61 1010.9
20260906185528 93 281 3.0 5.0 0.00 0.00 0.00 59 1011.1
20260906185022 94 280 2.0 5.0 0.00 0.00 0.00 60 1011.2
20260906184016 92 270 2.0 9.0 0.00 0.00 0.00 63 1011.5
20260906183010 92 262 2.0 8.0 0.00 0.00 0.00 64 1011.5
20260906182510 92 176 2.0 4.0 0.00 0.00 0.00 63 1011.6
20260906182012 92 176 2.0 6.0 0.00 0.00 0.00 65 1011.7
20260906181508 92 176 2.0 6.0 0.00 0.00 0.00 66 1011.7
20260906181008 92 177 2.0 5.0 0.00 0.00 0.00 67 1011.8
20260906180006 91 179 2.0 5.0 0.00 0.00 0.00 65 1011.9
20260906175009 91 179 2.0 5.0 0.00 0.00 0.00 67 1012.0
20260906174511 91 179 3.0 5.0 0.00 0.00 0.00 66 1012.0
20260906174008 91 178 2.0 7.0 0.00 0.00 0.00 64 1012.0
20260906173008 90 176 3.0 6.0 0.00 0.00 0.00 69 1012.0
20260906172510 90 175 3.0 7.0 0.00 0.00 0.00 70 1012.1
20260906172009 89 172 3.0 7.0 0.00 0.00 0.00 70 1012.1
20260906171508 89 158 3.0 7.0 0.00 0.00 0.00 70 1012.2
20260906171002 89 115 2.0 4.0 0.00 0.00 0.00 71 1012.2
20260906170500 89 113 2.0 3.0 0.00 0.00 0.00 73 1012.2
20260906165958 89 113 2.0 4.0 0.00 0.00 0.00 72 1012.3
20260906165459 89 113 2.0 4.0 0.00 0.00 0.00 72 1012.3
20260906165000 88 112 2.0 4.0 0.00 0.00 0.00 73 1012.4
20260906164456 88 276 3.0 6.0 0.00 0.00 0.00 72 1012.5
20260906163458 88 277 2.0 7.0 0.00 0.00 0.00 72 1012.5
20260906162954 87 289 2.0 3.0 0.00 0.00 0.00 73 1012.6
20260906162455 87 289 1.0 3.0 0.00 0.00 0.00 75 1012.7
20260906161954 87 289 1.0 4.0 0.00 0.00 0.00 76 1012.7
20260906161452 87 289 2.0 4.0 0.00 0.00 0.00 77 1012.8
20260906160952 86 289 2.0 5.0 0.00 0.00 0.00 77 1012.8
20260906160453 86 289 3.0 5.0 0.00 0.00 0.00 77 1012.8
20260906155958 87 289 2.0 5.0 0.00 0.00 0.00 78 1012.8
20260906155455 86 289 2.0 5.0 0.00 0.00 0.00 78 1012.8
20260906154952 86 285 3.0 6.0 0.00 0.00 0.00 77 1012.9
20260906154452 86 277 3.0 7.0 0.00 0.00 0.00 78 1012.9
20260906153951 86 277 3.0 7.0 0.00 0.00 0.00 78 1012.9
20260906153452 85 300 4.0 8.0 0.00 0.00 0.00 78 1012.9
20260906152948 86 294 3.0 8.0 0.00 0.00 0.00 77 1012.9
20260906152448 85 279 2.0 8.0 0.00 0.00 0.00 79 1012.9
20260906151946 85 281 2.0 4.0 0.00 0.00 0.00 80 1012.9
20260906151447 85 281 2.0 3.0 0.00 0.00 0.00 80 1013.0
20260906150947 85 281 2.0 5.0 0.00 0.00 0.00 80 1013.0
20260906150445 85 281 3.0 7.0 0.00 0.00 0.00 80 1013.0
20260906145944 85 281 2.0 7.0 0.00 0.00 0.00 81 1013.0
20260906145445 85 279 3.0 7.0 0.00 0.00 0.00 82 1013.0
20260906144447 83 289 2.0 5.0 0.00 0.00 0.00 84 1012.9
20260906143947 82 289 3.0 5.0 0.00 0.00 0.00 85 1012.9
20260906143443 82 289 3.0 7.0 0.00 0.00 0.00 85 1012.9
20260906142942 82 288 3.0 7.0 0.00 0.00 0.00 86 1013.0
20260906142442 82 284 3.0 5.0 0.00 0.00 0.00 86 1013.1
20260906141943 82 283 4.0 7.0 0.00 0.00 0.00 86 1012.9
20260906141442 82 283 3.0 7.0 0.00 0.00 0.00 86 1013.0
20260906140947 81 290 3.0 8.0 0.00 0.00 0.00 87 1012.9
20260906140441 81 290 3.0 8.0 0.00 0.00 0.00 87 1012.9
20260906135943 81 285 3.0 7.0 0.00 0.00 0.00 87 1012.8
20260906135444 81 277 3.0 7.0 0.00 0.00 0.00 87 1012.8
20260906134940 81 275 3.0 7.0 0.00 0.00 0.00 87 1012.9
20260906134442 81 291 4.0 8.0 0.00 0.00 0.00 88 1012.9
20260906133940 81 293 4.0 8.0 0.00 0.00 0.00 88 1012.9
20260906133440 81 296 4.0 8.0 0.00 0.00 0.00 87 1013.0
20260906132942 81 292 4.0 8.0 0.00 0.00 0.00 88 1013.0
20260906131940 80 285 4.0 7.0 0.00 0.00 0.00 89 1013.0
20260906131441 80 300 3.0 7.0 0.00 0.00 0.00 89 1013.0
20260906130939 80 285 3.0 5.0 0.00 0.00 0.00 90 1013.1
20260906130440 80 288 3.0 5.0 0.00 0.00 0.00 91 1013.0
20260906125939 79 289 3.0 7.0 0.00 0.00 0.00 91 1013.1
20260906125440 79 289 3.0 7.0 0.00 0.00 0.00 91 1013.0
20260906124941 79 318 2.0 5.0 0.00 0.00 0.00 91 1013.0
20260906124440 79 318 2.0 4.0 0.00 0.00 0.00 92 1013.0
20260906123940 79 318 2.0 5.0 0.00 0.00 0.00 92 1012.9
20260906123441 79 318 2.0 5.0 0.00 0.00 0.00 92 1012.7
20260906122941 78 325 2.0 4.0 0.00 0.00 0.00 93 1012.8
20260906122440 78 351 2.0 3.0 0.00 0.00 0.00 93 1012.7
20260906121936 78 351 1.0 3.0 0.00 0.00 0.00 93 1012.7
20260906121438 78 351 1.0 3.0 0.00 0.00 0.00 93 1012.6
20260906120936 78 351 2.0 7.0 0.00 0.00 0.00 93 1012.6
20260906115933 78 189 1.0 4.0 0.00 0.00 0.00 94 1012.6
20260906115434 78 189 1.0 4.0 0.00 0.00 0.00 94 1012.5
20260906114932 78 155 2.0 4.0 0.00 0.00 0.00 94 1012.5
20260906114429 78 264 1.0 4.0 0.00 0.00 0.00 94 1012.5
20260906113929 78 264 1.0 3.0 0.00 0.00 0.00 94 1012.3
20260906113429 78 264 1.0 2.0 0.00 0.00 0.00 94 1012.2
20260906112930 77 264 1.0 3.0 0.00 0.00 0.00 94 1012.1
20260906112430 77 264 1.0 3.0 0.00 0.00 0.00 94 1012.2
20260906111415 77 264 1.0 4.0 0.00 0.00 0.00 94 1012.1
20260906110910 77 264 1.0 3.0 0.00 0.00 0.00 94 1012.0
20260906110404 77 264 1.0 3.0 0.00 0.00 0.00 93 1011.9
20260906105903 78 264 1.0 2.0 0.00 0.00 0.00 93 1011.9
20260906104904 78 264 0.0 2.0 0.00 0.00 0.00 93 1012.0
20260906104407 78 264 0.0 2.0 0.00 0.00 0.00 93 1012.1
20260906103905 78 264 0.0 0.0 0.00 0.00 0.00 93 1011.9
20260906103403 78 264 0.0 0.0 0.00 0.00 0.00 93 1011.9
20260906102406 78 264 0.0 0.0 0.00 0.00 0.00 93 1011.8
20260906101904 78 264 0.0 0.0 0.00 0.00 0.00 93 1011.9
20260906101401 78 264 0.0 0.0 0.00 0.00 0.00 93 1011.9
20260906100901 78 264 0.0 0.0 0.00 0.00 0.00 93 1011.7
20260906100403 78 264 0.0 0.0 0.00 0.00 0.00 93 1011.7
20260906095908 78 264 0.0 0.0 0.00 0.00 0.00 93 1011.7
20260906095406 78 264 0.0 0.0 0.00 0.00 0.00 93 1011.6
20260906094902 78 264 0.0 0.0 0.00 0.00 0.00 93 1011.6
20260906093903 78 264 0.0 0.0 0.00 0.00 0.00 93 1011.5
20260906093400 78 264 0.0 0.0 0.00 0.00 0.00 93 1011.3
20260906092403 78 264 0.0 0.0 0.00 0.00 0.00 93 1011.2
20260906091903 78 264 0.0 0.0 0.00 0.00 0.00 93 1011.3
20260906091353 78 264 0.0 0.0 0.00 0.00 0.00 93 1011.2
20260906090852 78 264 0.0 0.0 0.00 0.00 0.00 93 1011.2
20260906090350 78 264 0.0 0.0 0.00 0.00 0.00 93 1011.2
20260906085848 78 264 0.0 1.0 0.00 0.00 0.00 92 1011.1
20260906085347 78 264 0.0 1.0 0.00 0.00 0.00 92 1011.3
20260906084845 79 264 0.0 1.0 0.00 0.00 0.00 92 1011.2
20260906084344 79 264 0.0 2.0 0.00 0.00 0.00 92 1011.2
20260906083841 79 264 1.0 2.0 0.00 0.00 0.00 92 1011.3
20260906083340 79 264 1.0 2.0 0.00 0.00 0.00 92 1011.5
20260906082840 79 264 1.0 2.0 0.00 0.00 0.00 92 1011.5
20260906082339 79 264 1.0 3.0 0.00 0.00 0.00 92 1011.3
20260906081849 79 264 1.0 3.0 0.00 0.00 0.00 92 1011.2
20260906081344 79 264 2.0 3.0 0.00 0.00 0.00 92 1011.4
20260906080837 79 264 1.0 3.0 0.00 0.00 0.00 92 1011.6
20260906080336 79 264 0.0 2.0 0.00 0.00 0.00 92 1011.5
20260906075836 79 264 0.0 0.0 0.00 0.00 0.00 92 1011.3
20260906075331 79 264 0.0 0.0 0.00 0.00 0.00 92 1011.3
20260906074830 79 264 0.0 0.0 0.00 0.00 0.00 92 1011.2
20260906074330 79 264 0.0 0.0 0.00 0.00 0.00 92 1011.3
20260906073831 79 264 0.0 0.0 0.00 0.00 0.00 92 1011.4
20260906073327 79 264 0.0 1.0 0.00 0.00 0.00 92 1011.3
20260906072824 79 264 0.0 1.0 0.00 0.00 0.00 92 1011.3
20260906072325 79 264 1.0 2.0 0.00 0.00 0.00 92 1011.3
20260906071828 79 264 1.0 2.0 0.00 0.00 0.00 92 1011.4
20260906071322 79 264 0.0 2.0 0.00 0.00 0.00 92 1011.4
20260906070817 79 264 0.0 1.0 0.00 0.00 0.00 91 1011.4
20260906070317 79 264 1.0 2.0 0.00 0.00 0.00 91 1011.3
20260906065813 79 264 1.0 3.0 0.00 0.00 0.00 91 1011.3
20260906065607 79 264 1.0 3.0 0.00 0.00 0.00 91 1011.5
20260906065410 80 264 2.0 3.0 0.00 0.00 0.00 91 1011.4
20260906065210 80 264 1.0 3.0 0.00 0.00 0.00 91 1011.3
20260906065009 80 264 0.0 3.0 0.00 0.00 0.00 90 1011.3
20260906064816 80 264 0.0 2.0 0.00 0.00 0.00 90 1011.3
20260906064631 80 264 1.0 3.0 0.00 0.00 0.00 90 1011.4
20260906064444 80 264 2.0 6.0 0.00 0.00 0.00 90 1011.5
20260906064250 80 264 2.0 6.0 0.00 0.00 0.00 91 1011.4
20260906064102 80 267 1.0 4.0 0.00 0.00 0.00 91 1011.4
20260906063840 80 267 0.0 0.0 0.00 0.00 0.00 91 1011.5
20260906063247 80 267 0.0 0.0 0.00 0.00 0.00 92 1011.8
20260906063101 79 267 0.0 0.0 0.00 0.00 0.00 92 1011.9
20260906061657 79 267 0.0 0.0 0.00 0.00 0.00 92 1012.1
20260906061509 79 267 0.0 0.0 0.00 0.00 0.00 92 1012.0
20260906061325 79 267 0.0 0.0 0.00 0.00 0.00 92 1011.9
20260906061131 79 267 0.0 0.0 0.00 0.00 0.00 92 1012.0
20260906060935 79 267 0.0 0.0 0.00 0.00 0.00 92 1012.1
20260906060737 79 267 0.0 0.0 0.00 0.00 0.00 92 1012.0
20260906060530 80 267 0.0 0.0 0.00 0.00 0.00 92 1012.0
20260906035739 80 267 0.0 0.0 0.00 0.00 0.00 91 1012.3
20260906035235 80 267 0.0 0.0 0.00 0.00 0.00 91 1012.3
20260906034736 80 267 0.0 0.0 0.00 0.00 0.00 91 1012.4
20260906034228 80 267 0.0 0.0 0.00 0.00 0.00 91 1012.3
20260906033726 80 267 0.0 0.0 0.00 0.00 0.00 91 1012.4
20260906033225 80 267 0.0 0.0 0.00 0.00 0.00 90 1012.5
20260906032725 81 267 0.0 0.0 0.00 0.00 0.00 90 1012.4
20260906032223 81 267 0.0 0.0 0.00 0.00 0.00 90 1012.5
20260906031721 81 267 0.0 0.0 0.00 0.00 0.00 90 1012.6
20260906031220 81 267 0.0 0.0 0.00 0.00 0.00 90 1012.6
20260906030226 81 267 0.0 0.0 0.00 0.00 0.00 90 1012.6
20260906025717 81 267 0.0 0.0 0.00 0.00 0.00 90 1012.5
20260906025211 81 267 0.0 0.0 0.00 0.00 0.00 89 1012.6
20260906024710 81 267 0.0 0.0 0.00 0.00 0.00 89 1012.7
20260906024208 81 267 0.0 0.0 0.00 0.00 0.00 89 1012.5
20260906023710 81 267 0.0 0.0 0.00 0.00 0.00 89 1012.4
20260906023213 81 267 0.0 0.0 0.00 0.00 0.00 89 1012.5
20260906022203 82 267 0.0 0.0 0.00 0.00 0.00 88 1012.2
20260906021702 82 267 0.0 0.0 0.00 0.00 0.00 88 1012.4
20260906021201 82 267 0.0 0.0 0.00 0.00 0.00 88 1012.4
20260906020704 82 267 0.0 0.0 0.00 0.00 0.00 88 1012.2
20260906020201 82 267 0.0 0.0 0.00 0.00 0.00 88 1012.2
20260906015701 82 267 0.0 0.0 0.00 0.00 0.00 88 1012.2
20260906015201 82 267 0.0 0.0 0.00 0.00 0.00 87 1012.2
20260906014701 83 267 0.0 0.0 0.00 0.00 0.00 87 1012.3
20260906014206 83 267 0.0 0.0 0.00 0.00 0.00 86 1012.3
20260906013703 83 267 0.0 0.0 0.00 0.00 0.00 86 1012.2
20260906012701 83 267 0.0 0.0 0.00 0.00 0.00 86 1012.1
20260906011200 83 267 0.0 0.0 0.00 0.00 0.00 84 1012.0
20260906010700 84 267 0.0 0.0 0.00 0.00 0.00 84 1012.0
20260906010159 84 267 0.0 0.0 0.00 0.00 0.00 84 1011.8
20260906005657 84 267 0.0 0.0 0.00 0.00 0.00 83 1011.7
20260906005157 84 267 0.0 0.0 0.00 0.00 0.00 83 1011.6
20260906004657 85 267 0.0 0.0 0.00 0.00 0.00 83 1011.6
20260906004156 85 267 0.0 0.0 0.00 0.00 0.00 83 1011.4
20260906003656 85 267 0.0 0.0 0.00 0.00 0.00 82 1011.4
20260906002654 85 267 0.0 0.0 0.00 0.00 0.00 81 1011.5
20260906001156 86 267 0.0 0.0 0.00 0.00 0.00 78 1011.5
20260906000651 87 267 0.0 0.0 0.00 0.00 0.00 78 1011.4
20260906000151 87 267 0.0 0.0 0.00 0.00 0.00 77 1011.4
20260905235650 88 267 0.0 0.0 0.00 0.00 0.00 76 1011.3
20260905235148 88 267 0.0 0.0 0.00 0.00 0.00 74 1011.3
20260905234648 89 267 0.0 0.0 0.00 0.00 0.00 73 1011.3
20260905234146 89 267 0.0 0.0 0.00 0.00 0.00 72 1011.3
20260905233647 90 267 0.0 0.0 0.00 0.00 0.00 70 1011.3
20260905233147 90 267 0.0 0.0 0.00 0.00 0.00 69 1011.2
20260905232648 91 267 1.0 2.0 0.00 0.00 0.00 68 1011.1